Flag for Germany Weather past 2 weeks in Sankt Augustin, North Rhine-Westphalia, Germany

Now
70 °F

Scattered clouds.


Feels Like: 70 °F
Forecast: 56 / 74 °F
Wind: 6 mph from North

Location: Koeln / Bonn

Current Time: Jul 30, 2014 at 7:42:06 PM

Latest Report: Jul 30, 2014 at 7:20 PM


Visibility: N/A

Pressure: 29.92 "Hg

Humidity: 64%

Dew point: 57 °F

Location of Sankt AugustinLocation

Historic Weather in Sankt Augustin — Graph

°F

Sankt Augustin temperature yesterday

Maximum temperature yesterday: 75 °F (at 2:20 PM)
Minimum temperature yesterday: 64 °F (at 12:50 AM)
Average temperature yesterday: 69 °F

Past Weeks' High & Low Weather Summary

 TemperatureHumidityPressure
High91 °F (Jul 19, 2:50 PM)100% (Jul 21, 7:20 AM)30.18 "Hg (Jul 21, 7:20 AM)
Low54 °F (Jul 25, 4:20 AM)26% (Jul 19, 2:50 PM)29.77 "Hg (Jul 20, 2:20 AM)
Average71 °F73%29.96 "Hg
* Reported Jul 15 6:20 PM — Jul 30 6:20 PM, Sankt Augustin, Weather by CustomWeather, © 2014

Note: Actual official high and low records may vary slightly from our data, if they occured in-between our weather recording intervals... More about our weather records

Advertising

Sankt Augustin weather history for previous 24 hours

 ConditionsComfort  
Time TempWeatherWind HumidityBarometerVisibility
6:20 PM
Jul 30
72 °FScattered clouds.12 mph57%29.89 "HgN/A
5:50 PM73 °FScattered clouds.12 mph53%29.89 "HgN/A
5:20 PM73 °FScattered clouds.15 mph57%29.89 "HgN/A
4:50 PM75 °FScattered clouds.13 mph47%29.89 "HgN/A
4:20 PM75 °FScattered clouds.13 mph47%29.89 "HgN/A
3:50 PM73 °FScattered clouds.14 mph50%29.89 "HgN/A
3:20 PM75 °FScattered clouds.12 mph50%29.89 "HgN/A
2:50 PM73 °FScattered clouds.13 mph53%29.89 "HgN/A
2:20 PM73 °FScattered clouds.9 mph57%29.89 "HgN/A
1:50 PM73 °FScattered clouds.14 mph53%29.89 "HgN/A
1:20 PM73 °FScattered clouds.12 mph53%29.89 "HgN/A
12:50 PM70 °FScattered clouds.13 mph64%29.89 "HgN/A
12:20 PM70 °FScattered clouds.13 mph64%29.89 "HgN/A
11:50 AM70 °FScattered clouds.12 mph64%29.89 "HgN/A
11:20 AM68 °FScattered clouds.13 mph73%29.89 "HgN/A
10:50 AM66 °FScattered clouds.13 mph73%29.89 "HgN/A
10:20 AM66 °FPartly sunny.10 mph78%29.89 "HgN/A
9:50 AM66 °FBroken clouds.12 mph78%29.86 "HgN/A
9:20 AM64 °FPartly sunny.9 mph88%29.86 "HgN/A
8:50 AM64 °FBroken clouds.9 mph88%29.86 "HgN/A
8:20 AM64 °FBroken clouds.10 mph88%29.86 "HgN/A
7:50 AM64 °FBroken clouds.13 mph88%29.83 "HgN/A
7:20 AM64 °FBroken clouds.13 mph88%29.83 "Hg6 mi
6:50 AM64 °FPartly cloudy.12 mph88%29.83 "Hg4 mi
6:20 AM64 °FLow clouds.13 mph94%29.83 "Hg4 mi
5:50 AM64 °FPassing clouds.13 mph94%29.83 "Hg5 mi
5:20 AM64 °FPassing clouds.12 mph94%29.80 "Hg5 mi
4:50 AM64 °FPassing clouds.13 mph94%29.80 "Hg5 mi
4:20 AM66 °FPassing clouds.12 mph88%29.80 "Hg6 mi
3:50 AM66 °FPassing clouds.9 mph94%29.80 "Hg6 mi
3:20 AM66 °FPartly cloudy.9 mph94%29.80 "HgN/A
2:50 AM66 °FPartly cloudy.7 mph94%29.80 "HgN/A
2:20 AM66 °FPartly cloudy.7 mph94%29.80 "HgN/A
1:50 AM66 °FPassing clouds.5 mph94%29.80 "HgN/A
1:20 AM66 °FLight rain. Partly cloudy.2 mph88%29.83 "HgN/A
12:50 AM66 °FClear.1 mph88%29.83 "Hg10 mi
12:20 AM66 °FPartly cloudy.3 mph88%29.83 "HgN/A
11:50 PM
Jul 29
66 °FPassing clouds.3 mph88%29.83 "HgN/A
11:20 PM66 °FScattered showers. Partly cloudy.6 mph88%29.80 "HgN/A
10:50 PM68 °FThundershowers. Partly cloudy.8 mph83%29.80 "HgN/A
10:20 PM70 °FBroken clouds.3 mph88%29.80 "HgN/A
9:50 PM70 °FBroken clouds.5 mph88%29.80 "HgN/A
9:20 PM70 °FPartly sunny.8 mph83%29.77 "HgN/A
8:50 PM72 °FSunny.6 mph83%29.77 "Hg10 mi
8:20 PM72 °FSunny.6 mph88%29.77 "Hg10 mi
7:50 PM73 °FSunny.6 mph83%29.77 "Hg10 mi
7:20 PM73 °FBroken clouds.6 mph83%29.77 "HgN/A
Weather by CustomWeather, © 2014

See weather overviewHow to use our weather pages